McKinney, TX

12:13 PM CDT on July 24, 2016 (GMT -0500)
Collin County Regional

Weather History for KTKI - January, 2014

Change the Weather History Date:

Wednesday, January 1, 2014

  Actual Average (KADS) Record (KADS)
Temperature  
Mean Temperature 48 °F -  
Max Temperature 64 °F 55 °F 80 °F (2006)
Min Temperature 32 °F 38 °F 26 °F (2001)
Degree Days  
Heating Degree Days 17    
Moisture  
Dew Point 34 °F    
Average Humidity 66    
Maximum Humidity 89    
Minimum Humidity 42    
Precipitation  
Precipitation 0.00 in - - ()
Sea Level Pressure  
Sea Level Pressure 30.08 in    
Wind  
Wind Speed 12 mph (South)    
Max Wind Speed 29 mph    
Max Gust Speed 34 mph    
Visibility 10 miles    
Events      
Averages and records for this station are not official NWS values.
T = Trace of Precipitation, MM = Missing Value Source: NWS Daily Summary

Daily Weather History Graph

Daily Weather History Graph

Search for Another Location

Airport or City:

Trip Planner

Search our weather history database for the weather conditions in past years. The results will help you decide how hot, cold, wet, or windy it might be!

Date:

Astronomy

Jan. 01, 2014 Rise Set
Actual Time 7:29 AM CST 5:30 PM CST
Civil Twilight 7:02 AM CST 5:57 PM CST
Nautical Twilight 6:31 AM CST 6:28 PM CST
Astronomical Twilight 6:01 AM CST 6:58 PM CST
Moon 7:24 AM CST (1/1) 6:12 PM CST (1/1)
Length of Visible Light 10h 55m
Length of Day
10h 00m
New Moon, 0% of the Moon is Illuminated
Jan 1
New Moon
Jan 7
First Quarter
Jan 15
Full
Jan 23
Last Quarter
Jan 30
New

Hourly Weather History & Observations

Time (CST) Temp. Windchill Dew Point Humidity Pressure Visibility Wind Dir Wind Speed Gust Speed Precip Events Conditions
12:53 AM 37.0 °F 31.0 °F 28.9 °F 73% 30.23 in 10.0 mi South 8.1 mph - N/A   Clear
1:53 AM 34.0 °F 28.0 °F 28.9 °F 82% 30.21 in 10.0 mi South 6.9 mph - N/A   Clear
2:53 AM 34.0 °F 28.0 °F 28.9 °F 82% 30.19 in 10.0 mi SSE 6.9 mph - N/A   Clear
3:53 AM 32.0 °F 26.4 °F 28.0 °F 85% 30.17 in 10.0 mi SSE 5.8 mph - N/A   Clear
4:53 AM 32.0 °F 25.6 °F 28.9 °F 88% 30.15 in 10.0 mi SSE 6.9 mph - N/A   Clear
5:53 AM 33.1 °F 26.9 °F 30.0 °F 89% 30.14 in 10.0 mi SSE 6.9 mph - N/A   Clear
6:53 AM 34.0 °F 26.6 °F 30.0 °F 85% 30.13 in 10.0 mi SSE 9.2 mph - N/A   Clear
7:53 AM 36.0 °F 26.7 °F 30.9 °F 82% 30.12 in 10.0 mi South 15.0 mph - N/A   Clear
8:53 AM 39.0 °F 29.9 °F 30.9 °F 73% 30.11 in 10.0 mi South 17.3 mph 24.2 mph N/A   Clear
9:53 AM 46.0 °F 39.6 °F 32.0 °F 58% 30.09 in 10.0 mi South 15.0 mph - N/A   Clear
10:53 AM 50.0 °F - 34.0 °F 54% 30.06 in 10.0 mi South 18.4 mph - N/A   Clear
11:53 AM 55.9 °F - 37.0 °F 49% 30.02 in 10.0 mi South 18.4 mph 26.5 mph N/A   Clear
12:53 PM 60.1 °F - 39.0 °F 46% 29.97 in 10.0 mi SSW 18.4 mph - N/A   Clear
1:53 PM 62.1 °F - 41.0 °F 46% 29.91 in 10.0 mi South 21.9 mph - N/A   Clear
2:53 PM 64.0 °F - 42.1 °F 45% 29.90 in 10.0 mi South 18.4 mph 25.3 mph N/A   Clear
3:53 PM 64.9 °F - 43.0 °F 45% 29.90 in 10.0 mi South 20.7 mph 28.8 mph N/A   Clear
4:53 PM 64.9 °F - 45.0 °F 48% 29.91 in 10.0 mi SSW 10.4 mph - N/A   Clear
5:53 PM 55.9 °F - 44.1 °F 64% 29.94 in 10.0 mi SSE 5.8 mph - N/A   Clear
6:53 PM 51.1 °F - 45.0 °F 80% 29.96 in 10.0 mi South 5.8 mph - N/A   Clear
7:53 PM 57.9 °F - 35.1 °F 42% 30.02 in 10.0 mi NNW 20.7 mph 27.6 mph N/A   Clear
8:53 PM 48.9 °F - 34.0 °F 56% 30.09 in 10.0 mi NW 24.2 mph 31.1 mph N/A   Clear
9:53 PM 39.9 °F 28.6 °F 28.9 °F 65% 30.16 in 10.0 mi NNW 28.8 mph 34.5 mph N/A   Clear
10:53 PM 36.0 °F 25.3 °F 26.1 °F 67% 30.20 in 10.0 mi NNW 19.6 mph 26.5 mph N/A   Clear
11:53 PM 33.1 °F 22.6 °F 24.1 °F 70% 30.24 in 10.0 mi NNW 16.1 mph - N/A   Clear